Regional Weather Roundup
Issued by NWS

Home | Current Version | Previous Version | Text Only | Print | Product List | Glossary On
Versions: 1 2 3 4 5 6 7 8 9 10 11 12 13 14 15 16 17 18 19 20 21 22 23 24 25 26 27 28 29 30 31 32 33 34 35 36 37 38 39 40 41 42 43 44 45 46 47 48 49 50
000
ASUS45 KPSR 101210
RWRAZ

ARIZONA REGIONAL HOURLY WEATHER ROUNDUP
NATIONAL WEATHER SERVICE PHOENIX AZ
500 AM MST THU JUL 10 2014

NOTE: FAIR INDICATES FEW OR NO CLOUDS BELOW 12,000 FEET WITH NO
SIGNIFICANT WEATHER AND/OR OBSTRUCTIONS TO VISIBILITY.

AZZ001>003-036-101300-
NORTHWEST ARIZONA

CITY           SKY/WX    TMP DP  RH WIND       PRES   REMARKS
BULLHEAD CITY  CLOUDY    86 N/A N/A S6        29.81R
KINGMAN        MOCLDY    74  62  66 SE9       30.00R
6HR MIN TEMP:  74; 6HR MAX TEMP:  79;

$$

AZZ004>008-015-016-018-101300-
NORTH CENTRAL ARIZONA

CITY           SKY/WX    TMP DP  RH WIND       PRES   REMARKS
GRAND CANYON   PTCLDY    54  52  93 CALM      30.23S
6HR MIN TEMP:  54; 6HR MAX TEMP:  59;

WILLIAMS         N/A     55  52  88 CALM      30.30F
PRESCOTT       CLEAR     65  56  72 CALM      30.13R
6HR MIN TEMP:  64; 6HR MAX TEMP:  72;

FLAGSTAFF      CLEAR     52  49  89 CALM      30.26S
6HR MIN TEMP:  52; 6HR MAX TEMP:  61;

PAYSON         PTCLDY    64  55  72 CALM      30.15S
PAGE           MOCLDY    77  51  40 S3        30.04S
6HR MIN TEMP:  76; 6HR MAX TEMP:  85;

$$

AZZ009>014-017-101300-
NORTHEAST ARIZONA

CITY           SKY/WX    TMP DP  RH WIND       PRES   REMARKS
WINSLOW        CLEAR     63  54  72 E6        30.13R
6HR MIN TEMP:  63; 6HR MAX TEMP:  74;

SAINT JOHNS    CLEAR     61  52  72 S3        30.18R
6HR MIN TEMP:  61; 6HR MAX TEMP:  72;

WINDOW ROCK    PTCLDY    59  52  77 CALM      30.26R
6HR MIN TEMP:  58; 6HR MAX TEMP:  64; 6HR PCP: TRACE;

SHOW LOW       CLOUDY    59  52  77 CALM      30.25R
$$

AZZ023-101300-
GREATER PHOENIX AREA

CITY           SKY/WX    TMP DP  RH WIND       PRES   REMARKS
PHOENIX        MOCLDY    88  62  41 W8        29.85R
6HR MIN TEMP:  88; 6HR MAX TEMP:  93;

BUCKEYE          N/A     81  66  61 W5        29.87R
LUKE AFB       NOT AVBL
6HR MIN TEMP:  83; 6HR MAX TEMP:  90;

DEER VALLEY    PTCLDY    83  61  47 CALM      29.87R
6HR MIN TEMP:  83; 6HR MAX TEMP:  89;

SCOTTSDALE     MOCLDY    86  63  45 CALM      29.89R
6HR MIN TEMP:  85; 6HR MAX TEMP:  90;

MESA-GATEWAY   PTCLDY    84  64  51 CALM      29.90R
$$

AZZ027-028-101300-
SOUTHWEST MARICOPA COUNTY AND PINAL COUNTY

CITY           SKY/WX    TMP DP  RH WIND       PRES   REMARKS
CASA GRANDE    CLOUDY    81  68  65 CALM      29.89S
6HR MIN TEMP:  79; 6HR MAX TEMP:  82;

$$

AZZ503-504-507>509-101300-
SOUTHEAST ARIZONA

CITY           SKY/WX    TMP DP  RH WIND       PRES   REMARKS
TUCSON         MOCLDY    77  64  64 S5        29.99S
6HR MIN TEMP:  77; 6HR MAX TEMP:  80;

DAVIS-MONTHAN  MOCLDY    75  65  69 S7        29.99R
6HR MIN TEMP:  75; 6HR MAX TEMP:  80;

NOGALES        MOCLDY    69  65  86 SW5       30.07S
6HR MIN TEMP:  68; 6HR MAX TEMP:  70; 6HR PCP: TRACE;

SIERRA VISTA   MOCLDY    68  61  77 S5        30.12R
DOUGLAS        PTCLDY    64  60  87 E5        30.08S
6HR MIN TEMP:  64; 6HR MAX TEMP:  70;

SAFFORD        PTCLDY    74  61  63 NW5       29.97R
6HR MIN TEMP:  74; 6HR MAX TEMP:  83;

$$

AZZ020-021-025-026-031-101300-
SOUTHWEST ARIZONA

CITY           SKY/WX    TMP DP  RH WIND       PRES   REMARKS
YUMA           PTCLDY    83  70  64 S10       29.80R
6HR MIN TEMP:  83; 6HR MAX TEMP:  91;

$$

CAZ031-033-041-043-047-048-061-101300-
SOUTHERN CALIFORNIA

CITY           SKY/WX    TMP DP  RH WIND       PRES   REMARKS
DOWNTOWN L.A.  CLOUDY    68  61  78 CALM      29.93S
6HR MIN TEMP:  66; 6HR MAX TEMP:  68;

L.A. AIRPORT   CLOUDY    68  61  78 SW3       29.94S
6HR MIN TEMP:  67; 6HR MAX TEMP:  68;

SAN DIEGO      MOCLDY    70  59  68 NE3       29.96R
6HR MIN TEMP:  69; 6HR MAX TEMP:  71;

BURBANK        CLOUDY    65  60  84 CALM      29.94S
6HR MIN TEMP:  64; 6HR MAX TEMP:  68;

ONTARIO        MOCLDY    65  61  87 W3        29.95S FOG
6HR MIN TEMP:  64; 6HR MAX TEMP:  70;

RIVERSIDE      MOCLDY    65  61  87 CALM      29.96R
6HR MIN TEMP:  65; 6HR MAX TEMP:  70;

PALM SPRINGS   CLEAR     82  57  42 CALM      29.84R
6HR MIN TEMP:  82; 6HR MAX TEMP:  93;

EL CENTRO NAS  CLEAR     80  69  69 CALM      29.77R
6HR MIN TEMP:  80; 6HR MAX TEMP:  88;

IMPERIAL       CLEAR     82  72  71 SE5       29.77R
6HR MIN TEMP:  82; 6HR MAX TEMP:  90;

BLYTHE         MOCLDY    85  66  53 S9        29.80R
6HR MIN TEMP:  85; 6HR MAX TEMP:  92;

NEEDLES        CLOUDY    89  65  44 W7        29.81R
6HR MIN TEMP:  88; 6HR MAX TEMP:  93;

$$

NVZ020-UTZ003-101300-
SOUTHERN NEVADA-UTAH

CITY           SKY/WX    TMP DP  RH WIND       PRES   REMARKS
LAS VEGAS      CLOUDY    84  62  47 SW7       29.82R
6HR MIN TEMP:  84; 6HR MAX TEMP:  90;

SALT LAKE CITY LGT RAIN  70  62  76 SE13      29.99S
6HR MIN TEMP:  69; 6HR MAX TEMP:  74; 6HR PCP:  0.06;

$$

NMZ009-TXZ055-101300-
NEW MEXICO-WEST TEXAS

CITY           SKY/WX    TMP DP  RH WIND       PRES   REMARKS
ALBUQUERQUE    PTCLDY    67  55  65 N5        30.16R
6HR MIN TEMP:  67; 6HR MAX TEMP:  73;

EL PASO        PTCLDY    74  58  57 SE5       30.03R
6HR MIN TEMP:  73; 6HR MAX TEMP:  84;

$$


........................KEY........................
SKY/WX - SKY CONDITION/WEATHER
TMP    - TEMPERATURE IN FAHRENHEIT
DP     - DEW POINT IN FAHRENHEIT
RH     - RELATIVE HUMIDITY IN PERCENT
WIND   - DIRECTION AND SPEED IN MILES PER HOUR (MPH)
VRB    - VARIABLE WIND DIRECTION
PRES   - MEAN SEA LEVEL PRESSURE IN INCHES OF MERCURY
         F - FALLING PRESSURE   R - RISING PRESSURE
         S - STEADY PRESSURE
VSB    - VISIBILITY IN MILES
HX     - HEAT INDEX IN FAHRENHEIT
WCI    - WIND CHILL INDEX IN FAHRENHEIT
TC     - TEMPERATURE IN CELSIUS WHICH IS ALSO KNOWN AS
         TEMPERATURE IN CENTIGRADE
AFB    - AIR FORCE BASE
         LUKE AFB IS LUKE AIR FORCE BASE
         DAVIS-MONTHAN IS DAVIS-MONTHAN AIR FORCE BASE
NAS    - NAVAL AIR STATION
         EL CENTRO NAS IS EL CENTRO NAVAL AIR STATION
N/A    - NOT AVAILABLE



USA.gov is the U.S. government's official web portal to all federal, state and local government web resources and services.